Tillbaka till svenska Fidonet
English   Information   Debug  
FILM   0/18
FNEWS_PUBLISH   4926
FN_SYSOP   42201
FN_SYSOP_OLD1   71952
FTP_FIDO   0/2
FTSC_PUBLIC   0/13972
FUNNY   0/4886
GENEALOGY.EUR   0/71
GET_INFO   105
GOLDED   0/408
HAM   2879/16660
HOLYSMOKE   0/6791
HOT_SITES   0/1
HTMLEDIT   0/71
HUB203   466
HUB_100   264
HUB_400   39
HUMOR   0/29
IC   0/2851
INTERNET   0/424
INTERUSER   0/3
IP_CONNECT   719
JAMNNTPD   0/233
JAMTLAND   0/47
KATTY_KORNER   0/41
LAN   0/16
LINUX-USER   0/19
LINUXHELP   0/1155
LINUX   0/22300
LINUX_BBS   0/957
mail   18.68
mail_fore_ok   249
MENSA   0/341
MODERATOR   0/102
MONTE   0/992
MOSCOW_OKLAHOMA   0/1245
MUFFIN   0/783
MUSIC   0/321
N203_STAT   938
N203_SYSCHAT   313
NET203   321
NET204   69
NET_DEV   0/10
NORD.ADMIN   0/101
NORD.CHAT   0/2572
NORD.FIDONET   189
NORD.HARDWARE   0/28
NORD.KULTUR   0/114
NORD.PROG   0/32
NORD.SOFTWARE   0/88
NORD.TEKNIK   0/58
NORD   0/453
OCCULT_CHAT   0/93
OS2BBS   0/787
OS2DOSBBS   0/580
OS2HW   0/42
OS2INET   0/37
OS2LAN   0/134
OS2PROG   0/36
OS2REXX   0/113
OS2USER-L   207
OS2   0/4830
OSDEBATE   0/18996
PASCAL   0/490
PERL   0/457
PHP   0/45
POINTS   0/405
POLITICS   0/29554
POL_INC   0/14731
PSION   103
R20_ADMIN   1133
R20_AMATORRADIO   0/2
R20_BEST_OF_FIDONET   16
R20_CHAT   0/896
R20_DEPP   0/3
R20_DEV   400
R20_ECHO2   1830
R20_ECHOPRES   0/35
R20_ESTAT   0/719
R20_FIDONETPROG...
...RAM.MYPOINT
  0/2
R20_FIDONETPROGRAM   0/22
R20_FIDONET   0/248
R20_FILEFIND   0/24
R20_FILEFOUND   0/22
R20_HIFI   0/3
R20_INFO2   3723
R20_INTERNET   0/12940
R20_INTRESSE   0/60
R20_INTR_KOM   0/99
R20_KANDIDAT.CHAT   42
R20_KANDIDAT   28
R20_KOM_DEV   112
R20_KONTROLL   0/13360
R20_KORSET   0/18
R20_LOKALTRAFIK   0/24
R20_MODERATOR   0/1852
R20_NC   76
R20_NET200   245
R20_NETWORK.OTH...
...ERNETS
  0/13
R20_OPERATIVSYS...
...TEM.LINUX
  0/44
R20_PROGRAMVAROR   0/1
R20_REC2NEC   534
R20_SFOSM   0/341
R20_SF   0/108
R20_SPRAK.ENGLISH   0/1
R20_SQUISH   107
R20_TEST   2
R20_WORST_OF_FIDONET   20
RAR   0/9
RA_MULTI   106
RA_UTIL   0/162
REGCON.EUR   0/2068
REGCON   0/13
SCIENCE   0/1206
SF   0/239
SHAREWARE_SUPPORT   0/5146
SHAREWRE   0/14
SIMPSONS   0/169
STATS_OLD1   0/2539.065
STATS_OLD2   0/2530
STATS_OLD3   0/2395.095
STATS_OLD4   0/1692.25
SURVIVOR   0/495
SYSOPS_CORNER   0/3
SYSOP   0/84
TAGLINES   0/112
TEAMOS2   0/4530
TECH   0/2617
TEST.444   0/105
TRAPDOOR   0/19
TREK   0/755
TUB   0/290
UFO   0/40
UNIX   0/1316
USA_EURLINK   0/102
USR_MODEMS   0/1
VATICAN   0/2740
VIETNAM_VETS   0/14
VIRUS   0/378
VIRUS_INFO   0/201
VISUAL_BASIC   0/473
WHITEHOUSE   0/5187
WIN2000   0/101
WIN32   0/30
WIN95   0/4291
WIN95_OLD1   0/70272
WINDOWS   0/1517
WWB_SYSOP   0/419
WWB_TECH   0/810
ZCC-PUBLIC   0/1
ZEC   4

 
4DOS   0/134
ABORTION   0/7
ALASKA_CHAT   0/506
ALLFIX_FILE   0/1313
ALLFIX_FILE_OLD1   0/7997
ALT_DOS   0/152
AMATEUR_RADIO   0/1039
AMIGASALE   0/14
AMIGA   0/331
AMIGA_INT   0/1
AMIGA_PROG   0/20
AMIGA_SYSOP   0/26
ANIME   0/15
ARGUS   0/924
ASCII_ART   0/340
ASIAN_LINK   0/651
ASTRONOMY   0/417
AUDIO   0/92
AUTOMOBILE_RACING   0/105
BABYLON5   0/17862
BAG   135
BATPOWER   0/361
BBBS.ENGLISH   0/382
BBSLAW   0/109
BBS_ADS   0/5290
BBS_INTERNET   0/507
BIBLE   0/3563
BINKD   0/1119
BINKLEY   0/215
BLUEWAVE   0/2173
CABLE_MODEMS   0/25
CBM   0/46
CDRECORD   0/66
CDROM   0/20
CLASSIC_COMPUTER   0/378
COMICS   0/15
CONSPRCY   0/899
COOKING   41444
COOKING_OLD1   0/24719
COOKING_OLD2   0/40862
COOKING_OLD3   0/37489
COOKING_OLD4   0/35496
COOKING_OLD5   9370
C_ECHO   0/189
C_PLUSPLUS   0/31
DIRTY_DOZEN   0/201
DOORGAMES   0/2285
DOS_INTERNET   0/196
duplikat   6102
ECHOLIST   0/18295
EC_SUPPORT   0/318
ELECTRONICS   0/359
ELEKTRONIK.GER   1534
ENET.LINGUISTIC   0/13
ENET.POLITICS   0/4
ENET.SOFT   0/11701
ENET.SYSOP   34296
ENET.TALKS   0/32
ENGLISH_TUTOR   0/2000
EVOLUTION   0/1335
FDECHO   0/217
FDN_ANNOUNCE   0/7068
FIDONEWS   25062
FIDONEWS_OLD1   0/49742
FIDONEWS_OLD2   0/35949
FIDONEWS_OLD3   0/30874
FIDONEWS_OLD4   0/37224
FIDO_SYSOP   12922
FIDO_UTIL   0/180
FILEFIND   0/209
FILEGATE   0/212
Möte HAM, 16660 texter
 lista första sista föregående nästa
Text 3308, 886 rader
Skriven 2009-11-05 23:30:25 av Amsat List (1:323/120.0)
Ärende: [keps]  orb09309.amsa
=============================
[keps]  orb09309.amsa

Return-Path: <keps-bounces@amsat.org>
X-Rcpt: craig.healy@chowda.com
X-UIDL: 1257476830.997

SB KEPS @ AMSAT  $ORB09309.O
Orbital Elements  09309.OSCAR

HR AMSAT ORBITAL ELEMENTS FOR OSCAR SATELLITES
FROM WA5QGD FORT WORTH,TX November 5, 2009
Send Subscribe/unsubscribe to KEPS at 
http://www.amsat.org/mailman/listinfo/keps
BID: ORB09309.O
TO ALL RADIO AMATEURS BT

Satellite: AO-07
Catalog number: 07530
Epoch time:      09308.94699184
Element set:    0622
Inclination:      101.4185 deg
RA of node:       328.4117 deg
Eccentricity:    0.0011920
Arg of perigee:   354.0278 deg
Mean anomaly:     006.0653 deg
Mean motion:   12.53576873 rev/day
Decay rate:       -2.7e-07 rev/day^2
Epoch rev:           60035
Checksum:              292

Satellite: FO-29
Catalog number: 24278
Epoch time:      09308.65977209
Element set:    0185
Inclination:      098.5294 deg
RA of node:       163.6609 deg
Eccentricity:    0.0350900
Arg of perigee:   346.3963 deg
Mean anomaly:     012.7902 deg
Mean motion:   13.52946294 rev/day
Decay rate:        2.0e-08 rev/day^2
Epoch rev:           65274
Checksum:              336

Satellite: SO-33
Catalog number: 25509
Epoch time:      09307.49941818
Element set:    0579
Inclination:      031.4311 deg
RA of node:       344.7343 deg
Eccentricity:    0.0354167
Arg of perigee:   116.5707 deg
Mean anomaly:     247.1614 deg
Mean motion:   14.28269080 rev/day
Decay rate:        1.8e-07 rev/day^2
Epoch rev:           57576
Checksum:              320

Satellite: RS-22
Catalog number: 27939
Epoch time:      09308.64684822
Element set:    0931
Inclination:      097.9197 deg
RA of node:       178.2283 deg
Eccentricity:    0.0014582
Arg of perigee:   051.2275 deg
Mean anomaly:     309.0230 deg
Mean motion:   14.63353659 rev/day
Decay rate:       1.49e-06 rev/day^2
Epoch rev:           32611
Checksum:              321

Satellite: VO-52
Catalog number: 28650
Epoch time:      09308.59039410
Element set:    0357
Inclination:      097.7268 deg
RA of node:       005.4004 deg
Eccentricity:    0.0025867
Arg of perigee:   291.5318 deg
Mean anomaly:     068.3253 deg
Mean motion:   14.81637878 rev/day
Decay rate:       2.83e-06 rev/day^2
Epoch rev:           24343
Checksum:              322

Satellite: SO-67
Catalog number: 35870
Epoch time:      09309.76818853
Element set:     146
Inclination:      097.3658 deg
RA of node:       358.9063 deg
Eccentricity:    0.0013041
Arg of perigee:   118.2637 deg
Mean anomaly:     352.2684 deg
Mean motion:   15.22839919 rev/day
Decay rate:       5.22e-06 rev/day^2
Epoch rev:             746
Checksum:              338

/EX
SB KEPS @ AMSAT  $ORB09309.D
Orbital Elements  09309.MICROS

HR AMSAT ORBITAL ELEMENTS FOR THE MICROSATS
FROM WA5QGD FORT WORTH,TX November 5, 2009
Send Subscribe/unsubscribe to KEPS at 
http://www.amsat.org/mailman/listinfo/keps
BID: ORB09309.D
TO ALL RADIO AMATEURS BT

Satellite: AO-16
Catalog number: 20439
Epoch time:      09308.59478811
Element set:     742
Inclination:      098.3000 deg
RA of node:       270.7492 deg
Eccentricity:    0.0011786
Arg of perigee:   111.3741 deg
Mean anomaly:     248.8680 deg
Mean motion:   14.31838166 rev/day
Decay rate:        2.7e-07 rev/day^2
Epoch rev:            3324
Checksum:              302

Satellite: LO-19
Catalog number: 20442
Epoch time:      09308.69871232
Element set:     654
Inclination:      098.2622 deg
RA of node:       277.5629 deg
Eccentricity:    0.0012919
Arg of perigee:   108.1765 deg
Mean anomaly:     252.0810 deg
Mean motion:   14.32072164 rev/day
Decay rate:        3.2e-07 rev/day^2
Epoch rev:            3342
Checksum:              288

Satellite: AO-27
Catalog number: 22825
Epoch time:      09308.85724913
Element set:     378
Inclination:      098.4555 deg
RA of node:       257.9708 deg
Eccentricity:    0.0007934
Arg of perigee:   204.8127 deg
Mean anomaly:     155.2705 deg
Mean motion:   14.29277331 rev/day
Decay rate:       -2.0e-07 rev/day^2
Epoch rev:           84000
Checksum:              316

Satellite: IO-26
Catalog number: 22826
Epoch time:      09309.87252772
Element set:     112
Inclination:      098.4484 deg
RA of node:       259.6457 deg
Eccentricity:    0.0008547
Arg of perigee:   197.4424 deg
Mean anomaly:     162.6465 deg
Mean motion:   14.29530654 rev/day
Decay rate:       -4.0e-08 rev/day^2
Epoch rev:           84025
Checksum:              328

Satellite: GO-32
Catalog number: 25397
Epoch time:      09309.80991511
Element set:      32
Inclination:      098.3187 deg
RA of node:       324.5232 deg
Eccentricity:    0.0001084
Arg of perigee:   150.4576 deg
Mean anomaly:     209.6669 deg
Mean motion:   14.23165556 rev/day
Decay rate:       -7.0e-07 rev/day^2
Epoch rev:           58827
Checksum:              314

Satellite: NO-44
Catalog number: 26931
Epoch time:      09308.83846795
Element set:    0307
Inclination:      067.0521 deg
RA of node:       061.9810 deg
Eccentricity:    0.0006948
Arg of perigee:   270.1274 deg
Mean anomaly:     089.9050 deg
Mean motion:   14.29571728 rev/day
Decay rate:        1.9e-07 rev/day^2
Epoch rev:           42268
Checksum:              325

Satellite: SO-50
Catalog number: 27607
Epoch time:      09308.53273700
Element set:    0026
Inclination:      064.5589 deg
RA of node:       318.8429 deg
Eccentricity:    0.0050316
Arg of perigee:   169.1087 deg
Mean anomaly:     191.1126 deg
Mean motion:   14.71471846 rev/day
Decay rate:        5.1e-07 rev/day^2
Epoch rev:           36932
Checksum:              305

